Ubon Ratchathani, Thailand

10:44 PM +07 on April 23, 2018 (GMT +0700)
Ubon Ratchathani

Weather History for VTUU - December, 2012

Change the Weather History Date:

Wednesday, December 5, 2012

  Actual Average Record
Temperature  
Mean Temperature 83 °F -  
Max Temperature 92 °F 86 °F - ()
Min Temperature 74 °F 63 °F - ()
Cooling Degree Days 18    
Growing Degree Days 33 (Base 50)    
Moisture  
Dew Point 71 °F    
Average Humidity 67    
Maximum Humidity 89    
Minimum Humidity 44    
Precipitation  
Precipitation 0.00 in 0.00 in - ()
Sea Level Pressure  
Sea Level Pressure 29.85 in    
Wind  
Wind Speed 3 mph ()    
Max Wind Speed 8 mph    
Max Gust Speed -    
Visibility 5.8 miles    
Events      
T = Trace of Precipitation, MM = Missing Value Source: Averaged Metar Reports

Daily Weather History Graph

Daily Weather History Graph

Search for Another Location

Airport or City:

Astronomy

Dec. 05, 2012 Rise Set
Actual Time 6:13 AM +07 5:29 PM +07
Civil Twilight 5:49 AM +07 5:52 PM +07
Nautical Twilight 5:23 AM +07 6:19 PM +07
Astronomical Twilight 4:56 AM +07 6:45 PM +07
Moon 11:04 PM +07 (12/5) 10:56 AM +07 (12/5)
Length of Visible Light 12h 02m
Length of Day
11h 16m
Waning Gibbous, 65% of the Moon is Illuminated
Dec 5
Waning Gibbous
Dec 6
Last Quarter
Dec 13
New
Dec 20
First Quarter
Dec 28
Full

Hourly Weather History & Observations

Time (+07) Temp. Heat Index Dew Point Humidity Pressure Visibility Wind Dir Wind Speed Gust Speed Precip Events Conditions
12:00 AM 78.8 °F - 73.4 °F 83% 29.80 in 5.6 mi East 2.3 mph - N/A   Unknown
1:00 AM 78 °F - 72 °F 78% 29.83 in 6 mi East 2.3 mph - -   Mist
1:00 AM 78.8 °F - 73.4 °F 83% 29.80 in 5.6 mi East 2.3 mph - N/A   Unknown
4:00 AM 75.2 °F - 71.6 °F 89% 29.83 in 5.6 mi West 2.3 mph - N/A   Unknown
5:00 AM 77.0 °F - 69.8 °F 78% 29.86 in 5.6 mi West 2.3 mph - N/A   Mostly Cloudy
6:00 AM 77.0 °F - 69.8 °F 78% 29.86 in 5.6 mi West 2.3 mph - N/A   Mostly Cloudy
7:00 AM 75 °F - 70 °F 80% 29.90 in 6 mi NNE 2.3 mph - -   Mist
7:00 AM 75.2 °F - 69.8 °F 83% 29.89 in 5.6 mi NNE 2.3 mph - N/A   Unknown
8:00 AM 78.8 °F - 71.6 °F 78% 29.92 in - NNW 3.5 mph - N/A   Clear
9:00 AM 82.4 °F 88.2 °F 73.4 °F 74% 29.92 in - North 3.5 mph - N/A   Clear
10:00 AM 84.2 °F 89.6 °F 71.6 °F 66% 29.92 in - NNW 4.6 mph - N/A   Clear
11:00 AM 86.0 °F 91.8 °F 71.6 °F 62% 29.89 in 6.2 mi NNE 3.5 mph - N/A   Partly Cloudy
12:00 PM 87.8 °F 93.8 °F 71.6 °F 58% 29.86 in 6.2 mi NNW 4.6 mph - N/A   Scattered Clouds
1:00 PM 90 °F - 71 °F 44% 29.84 in 6 mi ENE 3.5 mph - -   Mostly Cloudy
1:00 PM 89.6 °F 96.2 °F 71.6 °F 55% 29.83 in 6.2 mi ENE 4.6 mph - N/A   Mostly Cloudy
2:00 PM 91.4 °F 96.8 °F 69.8 °F 49% 29.80 in 6.2 mi North 3.5 mph - N/A   Mostly Cloudy
3:00 PM 91.4 °F 98.4 °F 71.6 °F 52% 29.80 in 6.2 mi NNE 3.5 mph - N/A   Scattered Clouds
4:00 PM 91.4 °F 98.4 °F 71.6 °F 52% 29.77 in 6.2 mi ENE 4.6 mph - N/A   Scattered Clouds
5:00 PM 89.6 °F 96.2 °F 71.6 °F 55% 29.80 in 6.2 mi NE 3.5 mph - N/A   Scattered Clouds
5:30 PM 87.8 °F 93.8 °F 71.6 °F 58% 29.80 in 5.0 mi NE 4.6 mph - N/A   Mostly Cloudy
6:00 PM 86.0 °F 91.8 °F 71.6 °F 62% 29.80 in 5.0 mi North 2.3 mph - N/A   Mostly Cloudy
7:00 PM 83 °F - 70 °F 56% 29.85 in 6 mi NE 3.5 mph - -   Haze
7:00 PM 82.4 °F 86.3 °F 69.8 °F 66% 29.83 in 5.6 mi NE 4.6 mph - N/A   Mostly Cloudy
10:00 PM 77.0 °F - 66.2 °F 69% 29.89 in 5.6 mi NE 8.1 mph - N/A   Unknown
11:00 PM 77.0 °F - 66.2 °F 69% 29.89 in 5.6 mi NNE 6.9 mph - N/A   Unknown